Location: Baumgarten
(49.0970°N, 12.7493°E)
Time: 19:19:45
(UTC+00:00)

Cosmos 1953 Rocket - Pass Details

Date: 05 July 2020
Orbit: 605 x 634 km, 82.5° (Epoch: 12 August)

Event Time Altitude Azimuth Distance (km) Brightness Sun altitude
Exits shadow 19:56:02 - 159° (SSE) 2,379 6.0 -5.8°
Reaches altitude 10° 19:57:11 10° 153° (SSE) 1,952 5.5 -6.0°
Maximum altitude 20:01:01 32° 90° (E) 1,048 4.4 -6.4°
Drops below altitude 10° 20:04:53 10° 28° (NNE) 1,968 6.4 -6.8°
Sets 20:07:16 0° 18° (NNE) 2,879 7.4 -7.1°
